This is the latest recevied weather packets stored in our database for station/object VE7THZ. If no packets are shown the sender has not sent any weather packets the latest 10 day(s).
| Time | Temp. | Humidity | Pressure | Rain* | Wind** | Luminosity | Snow |
|---|---|---|---|---|---|---|---|
| 1777591581 | 23.33° C | 25% | 1015.6 hPa | 0 mm | - | - | - |
| 1777590967 | 23.33° C | 26% | 1015.7 hPa | 0 mm | - | - | - |
| 1777590379 | 23.33° C | 26% | 1015.9 hPa | 0 mm | - | - | - |
| 1777589801 | 22.78° C | 28% | 1016.3 hPa | 0 mm | - | - | - |
| 1777589206 | 22.78° C | 27% | 1016.4 hPa | 0 mm | - | - | - |
| 1777588571 | 22.78° C | 27% | 1016.6 hPa | 0 mm | - | - | - |
| 1777587974 | 22.22° C | 27% | 1016.7 hPa | 0 mm | - | - | - |
| 1777587342 | 21.67° C | 27% | 1016.9 hPa | 0 mm | - | - | - |
| 1777586730 | 21.11° C | 28% | 1017.1 hPa | 0 mm | - | - | - |
| 1777586119 | 21.11° C | 29% | 1017.3 hPa | 0 mm | - | - | - |
| 1777585500 | 21.11° C | 33% | 1017.4 hPa | 0 mm | - | - | - |
| 1777584923 | 20.56° C | 30% | 1017.6 hPa | 0 mm | - | - | - |
| 1777584295 | 20° C | 34% | 1017.9 hPa | 0 mm | - | - | - |
| 1777583705 | 19.44° C | 34% | 1018 hPa | 0 mm | - | - | - |
| 1777583079 | 19.44° C | 35% | 1018.1 hPa | 0 mm | - | - | - |
| 1777582470 | 19.44° C | 34% | 1018.2 hPa | 0 mm | - | - | - |
| 1777581843 | 19.44° C | 32% | 1018.4 hPa | 0 mm | - | - | - |
| 1777581229 | 19.44° C | 35% | 1018.7 hPa | 0 mm | - | - | - |
| 1777580640 | 18.89° C | 34% | 1018.9 hPa | 0 mm | - | - | - |
| 1777580063 | 18.89° C | 37% | 1019.1 hPa | 0 mm | - | - | - |
| 1777579486 | 18.89° C | 38% | 1019.2 hPa | 0 mm | - | - | - |
| 1777578911 | 18.89° C | 38% | 1019.3 hPa | 0 mm | - | - | - |
| 1777578294 | 18.33° C | 38% | 1019.5 hPa | 0 mm | - | - | - |
| 1777577684 | 17.78° C | 39% | 1019.7 hPa | 0 mm | - | - | - |
| 1777577104 | 17.22° C | 40% | 1020 hPa | 0 mm | - | - | - |
* Rain latest hour (hover to see other rain measurements)
** Current wind speed in m/s (hover to see current wind gust speed)